Flag for Germany Weather past 2 weeks in Kiel, Schleswig-Holstein, Germany

Now
40 °F

Low clouds.


Feels Like: 40 °F
Forecast: 42 / 50 °F
Wind: 2 mph from Southwest

Location: Kiel-Holtenau

Current Time: Dec 17, 2014 at 10:35:14 PM

Latest Report: Dec 17, 2014 at 10:00 PM


Visibility: 1 mi

Pressure: 29.57 "Hg

Humidity: 100%

Dew point: 40 °F

Location of KielLocation

Historic Weather in Kiel — Graph

°F

Kiel temperature yesterday

Maximum temperature yesterday: 42 °F (at 1:00 PM)
Minimum temperature yesterday: 37 °F (at 2:00 PM)
Average temperature yesterday: 40 °F

Past Weeks' High & Low Weather Summary

 TemperatureHumidityPressure
High47 °F (Dec 12, 3:00 PM)100% (Dec 5, 10:00 AM)30.29 "Hg (Dec 5, 10:00 AM)
Low28 °F (Dec 2, 11:00 PM)73% (Dec 10, 4:00 AM)29.06 "Hg (Dec 12, 2:00 PM)
Average38 °F92%29.85 "Hg
* Reported Dec 2 9:00 PM — Dec 17 9:00 PM, Kiel, Weather by CustomWeather, © 2014

Note: Actual official high and low records may vary slightly from our data, if they occured in-between our weather recording intervals... More about our weather records

Advertising

Kiel weather history for previous 24 hours

 ConditionsComfort  
Time TempWeatherWind HumidityBarometerVisibility
9:00 PM
Dec 17
39 °FLow clouds.2 mph99%29.56 "Hg1 mi
8:00 PM39 °FFog.2 mph97%29.54 "Hg4 mi
7:00 PM38 °FFog.3 mph97%29.50 "Hg4 mi
6:00 PM38 °FLow clouds.3 mph95%29.50 "Hg7 mi
5:00 PM38 °FLow clouds.3 mph95%29.50 "Hg7 mi
4:00 PM38 °FDrizzle. Low clouds.3 mph97%29.50 "Hg6 mi
3:00 PM38 °FLight rain. Low clouds.3 mph95%29.50 "Hg7 mi
2:00 PM38 °FLight freezing rain. Low clouds.5 mph94%29.50 "Hg3 mi
1:00 PM38 °FLight freezing rain. Low clouds.5 mph95%29.54 "Hg3 mi
12:00 PM38 °FLight rain. Low clouds.5 mph95%29.57 "Hg2 mi
11:00 AM38 °FLight freezing rain. Low clouds.6 mph93%29.61 "Hg3 mi
10:00 AM38 °FFog.5 mph93%29.63 "Hg3 mi
9:00 AM37 °FLow clouds.5 mph93%29.65 "Hg5 mi
8:00 AM37 °FOvercast.5 mph90%29.66 "Hg10 mi
7:00 AM37 °FOvercast.5 mph86%29.68 "Hg19 mi
6:00 AM39 °FOvercast.3 mph81%29.69 "Hg22 mi
5:00 AM38 °FOvercast.5 mph82%29.70 "Hg16 mi
4:00 AM38 °FLight rain. Passing clouds.5 mph91%29.71 "Hg11 mi
3:00 AM38 °FPassing clouds.5 mph92%29.72 "Hg11 mi
2:00 AM37 °FClear.3 mph94%29.73 "Hg12 mi
1:00 AM38 °FPassing clouds.5 mph91%29.72 "Hg17 mi
12:00 AM38 °FPassing clouds.5 mph93%29.72 "Hg19 mi
11:00 PM
Dec 16
39 °FLight rain. Overcast.6 mph94%29.73 "Hg7 mi
10:00 PM38 °FPassing clouds.6 mph91%29.73 "Hg14 mi
Weather by CustomWeather, © 2014

See weather overviewHow to use our weather pages